Hettinger, ND

3:57 AM MDT on September 25, 2017 (GMT -0600)
Hettinger Municipal

Weather History for KHEI - March, 2014

Change the Weather History Date:

Sunday, March 9, 2014

  Actual Average Record
Temperature  
Mean Temperature 47 °F -  
Max Temperature 61 °F 38 °F 70 °F (2012)
Min Temperature 32 °F 16 °F -18 °F (2002)
Degree Days  
Heating Degree Days 18 38  
Month to date heating degree days 426 354  
Since 1 July heating degree days 7145 6670  
Cooling Degree Days 0 0  
Month to date cooling degree days 0 0  
Year to date cooling degree days 0 0  
Moisture  
Dew Point 32 °F    
Average Humidity 60    
Maximum Humidity 79    
Minimum Humidity 37    
Precipitation  
Precipitation 0.00 in 0.02 in 0.01 in (2006)
Month to date precipitation T 0.15  
Year to date precipitation 0.24 0.88  
Sea Level Pressure  
Sea Level Pressure 29.79 in    
Wind  
Wind Speed 10 mph (West)    
Max Wind Speed 21 mph    
Max Gust Speed 25 mph    
Visibility 10 miles    
Events      
T = Trace of Precipitation, MM = Missing Value Source: NWS Daily Summary

Daily Weather History Graph

Daily Weather History Graph

Search for Another Location

Airport or City:

Trip Planner

Search our weather history database for the weather conditions in past years. The results will help you decide how hot, cold, wet, or windy it might be!

Date:

Astronomy

Mar. 09, 2014 Rise Set
Actual Time 7:14 AM MDT 6:48 PM MDT
Civil Twilight 6:44 AM MDT 7:18 PM MDT
Nautical Twilight 6:10 AM MDT 7:52 PM MDT
Astronomical Twilight 5:35 AM MDT 8:27 PM MDT
Moon 12:29 PM MDT (3/9) 3:55 AM MDT (3/9)
Length of Visible Light 12h 33m
Length of Day
11h 33m
First Quarter, 61% of the Moon is Illuminated
Mar 9
First Quarter
Mar 16
Full
Mar 23
Last Quarter
Mar 30
New
Apr 7
First Quarter

Hourly Weather History & Observations

Time (MDT) Temp. Windchill Dew Point Humidity Pressure Visibility Wind Dir Wind Speed Gust Speed Precip Events Conditions
12:53 AM 37.9 °F 35.5 °F 30.0 °F 73% 29.85 in 10.0 mi West 3.5 mph - N/A   Scattered Clouds
1:53 AM 39.9 °F 33.9 °F 30.0 °F 68% 29.83 in 10.0 mi NW 9.2 mph - N/A   Overcast
3:53 AM 39.0 °F 32.3 °F 28.9 °F 67% 29.82 in 10.0 mi West 10.4 mph - N/A   Clear
4:53 AM 37.0 °F 30.4 °F 28.0 °F 70% 29.81 in 10.0 mi West 9.2 mph - N/A   Clear
5:53 AM 35.1 °F 27.9 °F 28.0 °F 76% 29.84 in 10.0 mi WNW 9.2 mph - N/A   Clear
6:53 AM 37.0 °F 31.6 °F 27.0 °F 67% 29.83 in 10.0 mi WNW 6.9 mph - N/A   Clear
7:53 AM 39.0 °F - 27.0 °F 62% 29.81 in 10.0 mi Calm Calm - N/A   Clear
8:53 AM 42.1 °F 37.1 °F 28.9 °F 60% 29.81 in 10.0 mi West 8.1 mph - N/A   Clear
9:53 AM 48.0 °F - 30.0 °F 50% 29.79 in 10.0 mi WSW 10.4 mph - N/A   Clear
10:53 AM 54.0 °F - 32.0 °F 43% 29.77 in 10.0 mi WSW 11.5 mph - N/A   Clear
11:53 AM 57.0 °F - 33.1 °F 40% 29.77 in 10.0 mi West 12.7 mph - N/A   Clear
12:53 PM 59.0 °F - 34.0 °F 39% 29.76 in 10.0 mi West 10.4 mph - N/A   Partly Cloudy
1:53 PM 57.9 °F - 33.1 °F 39% 29.74 in 10.0 mi West 15.0 mph - N/A   Overcast
2:53 PM 60.1 °F - 35.1 °F 39% 29.73 in 10.0 mi West 15.0 mph - N/A   Clear
3:53 PM 61.0 °F - 35.1 °F 38% 29.73 in 10.0 mi West 17.3 mph - N/A   Clear
4:53 PM 55.9 °F - 37.0 °F 49% 29.74 in 10.0 mi West 11.5 mph - N/A   Clear
5:53 PM 57.0 °F - 37.9 °F 49% 29.75 in 10.0 mi West 10.4 mph - N/A   Clear
6:53 PM 46.0 °F 43.1 °F 35.1 °F 66% 29.77 in 10.0 mi West 5.8 mph - N/A   Clear
7:53 PM 43.0 °F 36.8 °F 34.0 °F 71% 29.79 in 10.0 mi West 11.5 mph - N/A   Clear
8:53 PM 42.1 °F 35.7 °F 34.0 °F 73% 29.79 in 10.0 mi West 11.5 mph - N/A   Clear
9:53 PM 44.1 °F 38.1 °F 34.0 °F 68% 29.79 in 10.0 mi West 11.5 mph - N/A   Clear
10:53 PM 39.9 °F 34.5 °F 33.1 °F 77% 29.79 in 10.0 mi West 8.1 mph - N/A   Clear
11:53 PM 39.9 °F 33.9 °F 33.1 °F 77% 29.78 in 10.0 mi West 9.2 mph - N/A   Clear
12:53 AM 37.9 °F 31.5 °F 32.0 °F 79% 29.78 in 10.0 mi WNW 9.2 mph - N/A   Clear